Location: Newark
(7.1028°S, 35.3258°W)
Time: 14:30:45
(UTC+00:00)

Vanguard 3 - Pass Details

Date: 05 March 2020
Orbit: 508 x 3263 km, 33.4° (Epoch: 06 April)

Event Time Altitude Azimuth Distance (km) Brightness Sun altitude
Rises 21:27:52 0° 249° (WSW) 6,684 13.5 -12.9°
Reaches altitude 10° 21:33:21 10° 237° (WSW) 5,944 12.6 -14.3°
Maximum altitude 21:48:52 28° 185° (S) 4,814 11.1 -18.1°
Drops below altitude 10° 22:03:42 10° 131° (SE) 5,669 11.1 -21.7°
Enters shadow 22:06:02 - 126° (SE) 5,958 11.1 -22.3°
